Tracking 29932 objects as of 3-Dec-2024
HD Live streaming from Space Station
objects crossing your sky now

STARLINK-31861

Track STARLINK-31861 now!
10-day predictions
STARLINK-31861 is classified as:


NORAD ID: 59906
Int'l Code: 2024-100X
Perigee: 450.0 km
Apogee: 452.5 km
Inclination: 43.0 °
Period: 93.5 minutes
Semi major axis: 6822 km
RCS: Unknown
Launch date: May 28, 2024
Source: United States (US)
Launch site: AIR FORCE EASTERN TEST RANGE (AFETR)
Your satellite tracking list
Your tracking list is empty




NASA's NSSDC Master Catalog

Two Line Element Set (TLE):
1 59906U 24100X   24337.97936731  .00003829  00000-0  98960-4 0  9998
2 59906  42.9997 226.7994 0001894 275.7251  84.3389 15.40675035 30274
Source of the keplerian elements: AFSPC